Location: The Saddle
(36.8333°N, 80.3417°W)
Time: 19:35:50
(UTC-05:00)

A-11 Canister half - Pass Details

Date: 12 December 2023
Orbit: 1512 x 1687 km, 47.2° (Epoch: 26 February)

Event Time Altitude Azimuth Distance (km) Brightness Sun altitude
Rises 00:07:51 0° 264° (W) 4,699 - -76.1°
Reaches altitude 10° 00:11:00 10° 270° (W) 3,737 - -76.2°
Maximum altitude 00:20:12 52° 345° (NNW) 1,921 - -76.2°
Drops below altitude 10° 00:29:47 10° 60° (ENE) 3,877 - -75.9°
Sets 00:33:08 0° 66° (ENE) 4,886 - -75.7°
